[[{"header":{"parameterUnit":"m.s-1","parameterCategory":1,"la1":30.2991,"la2":30.254,"lo1":-89.0895,"lo2":-89.0444,"dy":0.0017,"dx":0.0017,"nx":28,"ny":28,"refTime":"2025-01-12T03:00:00:Z","depth":0,"parameterNumber":2,"parameterNumberName":"U-component_of_WINDS"},"data":[0,0,0,0,0,0,0,0,0,0,0,0,0,0,0,0,0,0,0,0,0,0,0,0,0,0,0,0,0,0,0,0,0,0,0,0,0,0,0,0,0,0,0,0,0,0,0,0,0,0,0,0,0,0,0,0,0,0,-5.7581,-5.7582,0,-5.7665,-5.7666,-5.7667,-5.7532,-5.7527,-5.7523,-5.7518,-5.761,-5.7616,-5.7623,0,0,0,0,0,0,0,0,0,0,0,0,0,-5.7309,-5.7315,-5.7581,-5.7582,-5.7583,-5.7665,-5.7666,-5.7667,-5.7533,-5.7527,-5.7522,-5.7516,-5.7608,-5.7616,-5.7624,0,0,0,0,0,0,0,0,0,0,0,0,0,-5.7414,-5.7317,-5.7581,-5.7526,-5.7522,-5.7664,-5.7666,-5.7667,-5.7534,-5.7527,-5.752,-5.7514,-5.7605,-5.7615,-5.7625,-5.7827,0,0,-5.7656,-5.766,0,0,0,0,0,0,0,0,-5.7408,-5.7424,-5.7533,-5.753,-5.7525,-5.7581,-5.7603,-5.7721,-5.7536,-5.753,-5.7518,-5.751,-5.7606,-5.7616,-5.7647,-5.7831,-5.7835,-5.7657,-5.7663,-5.7667,-5.767,0,0,0,0,0,0,0,-5.7401,-5.7419,-5.7614,-5.7535,-5.753,-5.7498,-5.7506,-5.7625,-5.7606,-5.753,-5.752,-5.7531,-5.7603,-5.7637,-5.7648,-5.7836,-5.7656,-5.7665,-5.7672,-5.7676,-5.8189,-5.8196,0,0,0,0,0,0,-5.74,-5.7414,-5.7611,-5.7617,-5.7448,-5.7509,-5.7517,-5.757,-5.7604,-5.7603,-5.7537,-5.7525,-5.7624,-5.7636,-5.7651,-5.7887,-5.7667,-5.7677,-5.7682,-5.8181,-5.8191,-5.8199,0,0,0,0,0,0,-5.7394,-5.7418,-5.7608,-5.7513,-5.7534,-5.7521,-5.7582,-5.7575,-5.761,-5.761,-5.7606,-5.7576,-5.7619,-5.7636,-5.7783,-5.7889,-5.7681,-5.769,-5.8173,-5.8184,-5.8195,-5.8364,0,0,0,0,0,0,-5.7387,-5.7417,-5.7493,-5.7516,-5.754,-5.7738,-5.7588,-5.7582,-5.7627,-5.7611,-5.7645,-5.7644,-5.7614,-5.7769,-5.7793,-5.7899,-5.7698,-5.8163,-5.8178,-5.8191,-5.8349,-5.838,-5.8406,0,0,0,0,0,-5.7378,-5.7539,-5.7497,-5.7522,-5.7634,-5.7744,-5.7759,-5.7719,-5.7636,-5.7712,-5.7712,-5.7643,-5.7874,-5.7785,-5.7811,-5.7922,-5.8156,-5.8174,-5.819,-5.8336,-5.8374,-5.8406,0,0,0,0,0,0,-5.7531,-5.7541,-5.7495,-5.7668,-5.7706,-5.7721,-5.7816,-5.7761,-5.7825,-5.7808,-5.7759,-5.7768,-5.7925,-5.7938,-5.7839,-5.8118,-5.8001,-5.8024,-5.8103,-5.8139,-5.8167,-5.816,-5.7707,0,0,0,0,0,-5.7584,-5.7672,-5.7676,-5.7829,-5.785,-5.7831,-5.7877,-5.7844,-5.7882,-5.7898,-5.7909,-5.795,-5.8032,-5.8087,-5.8162,-5.8351,-5.8356,-5.844,-5.8469,-5.8492,-5.8512,-5.8612,-5.8649,-5.8255,-5.8254,-5.8254,0,0,-5.7697,-5.7713,-5.7771,-5.786,-5.7885,-5.7978,-5.7845,-5.7949,-5.8017,-5.7914,-5.8052,-5.8062,-5.8105,-5.8274,-5.8349,-5.829,-5.8623,-5.8514,-5.8533,-5.854,-5.8633,-5.8671,-5.8704,-5.8266,-5.8264,-5.8262,0,0,-5.7947,-5.7969,-5.8097,-5.8125,-5.8165,-5.815,-5.8182,-5.8206,-5.8207,-5.8345,-5.8269,-5.8351,-5.8493,-5.8526,-5.8562,-5.8825,-5.8763,-5.8852,-5.9,-5.9098,-5.9129,-5.9156,-5.9248,-5.9282,-5.8872,-5.8872,-5.8873,0,-5.8081,-5.8216,-5.817,-5.8278,-5.8319,-5.8229,-5.8359,-5.8389,-5.8453,-5.8484,-5.8417,-5.8592,-5.8615,-5.8789,-5.8853,-5.8886,-5.8919,-5.8846,-5.9128,-5.9155,-5.918,-5.9267,-5.9302,-5.8883,-5.8881,-5.888,-5.8879,0,-5.8378,-5.8473,-5.8572,-5.8633,-5.8685,-5.8805,-5.8777,-5.8837,-5.8799,-5.8793,-5.8934,-5.8958,-5.9036,-5.9075,-5.9041,-5.9245,-5.9207,-5.9136,-5.9016,-5.9228,-5.9309,-5.9342,-5.8897,-5.8894,-5.8891,-5.8888,0,0,-5.8726,-5.8759,-5.8796,-5.8822,-5.886,-5.8933,-5.9049,-5.9122,-5.9173,-5.9221,-5.9316,-5.9438,-5.9371,-5.9412,-5.9381,-5.9467,-5.9672,-5.9384,-5.9385,-5.9435,-5.9896,-5.9948,-5.9987,-5.9632,-5.9638,-5.9643,-5.9892,0,-5.8973,-5.9169,-5.9131,-5.9323,-5.9409,-5.9325,-5.9426,-5.9461,-5.9458,-5.9532,-5.953,-5.9616,-5.9523,-5.9547,-5.9629,-5.963,-5.9763,-5.9612,-5.972,-5.9724,-5.9709,-6.003,-6.0085,-6.0318,-5.9923,-5.9929,-5.9933,0,-5.9287,-5.9343,-5.9543,-5.9566,-5.9601,-5.9691,-5.9755,-5.9828,-5.9866,-5.9858,-5.9903,-5.9856,-5.9971,-5.9852,-6.0011,-5.9908,-5.9951,-5.9958,-5.9966,-5.9973,-5.9839,-6.0043,-6.0391,-6.0426,-5.9983,-5.9979,-5.9975,0,-5.9517,-5.9644,-5.9779,-5.9805,-5.9835,-5.99,-5.9917,-5.9948,-5.9994,-6.0052,-6.0081,-6.0153,-6.0192,-6.0248,-6.0222,-6.0138,-6.0385,-6.0264,-6.0381,-6.0382,-6.0434,-6.0431,-6.0792,-6.0467,-6.0467,-6.0466,-6.0465,0,-5.9796,-5.9921,-5.9883,-5.9966,-6.0103,-6.006,-6.0198,-6.0205,-6.0233,-6.0317,-6.0251,-6.0331,-6.0292,-6.037,-6.035,-6.0483,-6.0502,-6.0499,-6.0492,-6.0503,-6.0504,-6.0529,-6.0511,-6.0475,-6.0473,-6.0471,-6.047,0,-6.0075,-6.0055,-6.0196,-6.0213,-6.022,-6.0321,-6.0336,-6.0414,-6.0407,-6.0513,-6.0536,-6.0525,-6.0613,-6.0593,-6.069,-6.0677,-6.0844,-6.0818,-6.083,-6.0823,-6.094,-6.0928,-6.1328,-6.1377,-6.1023,-6.1026,-6.1029,0,-6.0252,-6.0346,-6.0372,-6.0422,-6.0443,-6.0525,-6.0572,-6.0534,-6.0585,-6.0636,-6.0708,-6.079,-6.0853,-6.0998,-6.1,-6.1074,-6.1047,-6.1183,-6.1058,-6.1066,-6.1046,-6.104,-6.1048,-6.1206,-6.1211,-6.1214,-6.1217,0,-6.0568,-6.0553,-6.0622,-6.0688,-6.0745,-6.0795,-6.084,-6.0885,-6.0851,-6.0912,-6.1,-6.1049,-6.1148,-6.123,-6.1298,-6.1316,-6.1261,-6.1256,-6.1286,-6.1298,-6.1299,-6.1297,-6.0894,-6.1246,-6.1243,-6.1241,-6.124,-6.1238,-6.08,-6.0878,-6.0909,-6.0987,-6.1017,-6.106,-6.1133,-6.1134,-6.1206,-6.1281,-6.1256,-6.1356,-6.1392,-6.1478,-6.1505,-6.1583,-6.1532,-6.1578,-6.1588,-6.1599,-6.1612,-6.129,-6.1596,-6.1595,-6.1595,-6.1594,-6.1593,0,-6.111,-6.1125,-6.1198,-6.1261,-6.1323,-6.1265,-6.1311,-6.1367,-6.1456,-6.1493,-6.1556,-6.1658,-6.1737,-6.1745,-6.182,-6.1882,-6.1858,-6.1902,-6.1896,-6.1901,-6.1655,-6.1619,-6.192,-6.192,-6.192,-6.192,-6.192,-6.1919,-6.1278,-6.1407,-6.1396,-6.154,-6.1554,-6.165,-6.1682,-6.1721,-6.175,-6.1865,-6.193,-6.1934,-6.196,-6.2037,-6.2107,-6.2107,-6.2137,-6.2191,-6.2181,-6.1951,-6.1918,-6.1887,-6.1853,-6.2198,-6.2198,-6.242,-6.2422,-6.2424]},{"header":{"parameterUnit":"m.s-1","parameterCategory":1,"la1":30.2991,"la2":30.254,"lo1":-89.0895,"lo2":-89.0444,"dy":0.0017,"dx":0.0017,"nx":28,"ny":28,"refTime":"2025-01-12T03:00:00:Z","depth":0,"parameterNumber":3,"parameterNumberName":"V-component_of_WINDS"},"data":[0,0,0,0,0,0,0,0,0,0,0,0,0,0,0,0,0,0,0,0,0,0,0,0,0,0,0,0,0,0,0,0,0,0,0,0,0,0,0,0,0,0,0,0,0,0,0,0,0,0,0,0,0,0,0,0,0,0,-0.4252,-0.4251,0,-0.4139,-0.4138,-0.4137,-0.4126,-0.4128,-0.4129,-0.413,-0.4009,-0.4005,-0.4,0,0,0,0,0,0,0,0,0,0,0,0,0,-0.4451,-0.4448,-0.4252,-0.4251,-0.4249,-0.414,-0.4138,-0.4136,-0.4126,-0.4128,-0.4129,-0.4131,-0.401,-0.4005,-0.4,0,0,0,0,0,0,0,0,0,0,0,0,0,-0.4354,-0.4447,-0.4253,-0.4231,-0.4228,-0.414,-0.4138,-0.4136,-0.4126,-0.4128,-0.413,-0.4131,-0.4012,-0.4006,-0.3999,-0.3923,0,0,-0.3979,-0.3977,0,0,0,0,0,0,0,0,-0.436,-0.4347,-0.4236,-0.4233,-0.4229,-0.4149,-0.4164,-0.4064,-0.4125,-0.4165,-0.413,-0.4132,-0.4054,-0.4044,-0.4019,-0.3917,-0.3912,-0.3979,-0.3975,-0.3972,-0.397,0,0,0,0,0,0,0,-0.4366,-0.4352,-0.4207,-0.4234,-0.423,-0.4225,-0.4213,-0.4145,-0.41,-0.4161,-0.416,-0.4147,-0.4052,-0.4025,-0.4016,-0.391,-0.3979,-0.3973,-0.3969,-0.3967,-0.3735,-0.3733,0,0,0,0,0,0,-0.4378,-0.4357,-0.4211,-0.4204,-0.43,-0.422,-0.4207,-0.4173,-0.4101,-0.4092,-0.4146,-0.4147,-0.4035,-0.4023,-0.4011,-0.3914,-0.3972,-0.3966,-0.3962,-0.3737,-0.3734,-0.3732,0,0,0,0,0,0,-0.4382,-0.4365,-0.4216,-0.428,-0.4261,-0.4214,-0.4176,-0.417,-0.4142,-0.4089,-0.4081,-0.4127,-0.4036,-0.402,-0.3944,-0.391,-0.3963,-0.3957,-0.374,-0.3736,-0.3733,-0.372,0,0,0,0,0,0,-0.4388,-0.4367,-0.4339,-0.428,-0.4258,-0.4153,-0.4174,-0.4166,-0.4132,-0.4132,-0.4069,-0.406,-0.4036,-0.3954,-0.3938,-0.3902,-0.3952,-0.3743,-0.3738,-0.3734,-0.3724,-0.3717,-0.3711,0,0,0,0,0,-0.4395,-0.434,-0.4338,-0.4321,-0.4223,-0.4151,-0.4138,-0.4113,-0.4129,-0.4099,-0.4065,-0.4062,-0.3916,-0.3946,-0.3928,-0.3889,-0.3745,-0.3739,-0.3735,-0.3726,-0.3718,-0.3711,0,0,0,0,0,0,-0.4396,-0.4332,-0.4329,-0.4254,-0.4208,-0.4149,-0.4112,-0.4106,-0.4053,-0.4056,-0.4025,-0.4011,-0.3935,-0.3905,-0.3939,-0.3809,-0.3832,-0.3823,-0.3832,-0.3824,-0.3818,-0.3826,-0.3947,0,0,0,0,0,-0.4387,-0.4337,-0.4283,-0.4221,-0.4198,-0.4159,-0.4127,-0.4111,-0.4062,-0.4042,-0.4002,-0.3952,-0.3895,-0.3858,-0.3802,-0.3719,-0.3703,-0.3683,-0.3677,-0.3672,-0.3664,-0.3614,-0.3603,-0.3715,-0.3715,-0.3716,0,0,-0.4369,-0.4328,-0.4298,-0.422,-0.4183,-0.4128,-0.4143,-0.4085,-0.4043,-0.4033,-0.3958,-0.3926,-0.3869,-0.3788,-0.375,-0.376,-0.363,-0.3666,-0.3662,-0.3657,-0.3608,-0.3597,-0.3588,-0.3712,-0.3713,-0.3713,0,0,-0.4307,-0.4272,-0.4215,-0.4177,-0.4121,-0.4094,-0.408,-0.4022,-0.4001,-0.3926,-0.3916,-0.3864,-0.3767,-0.3725,-0.3691,-0.3609,-0.3603,-0.3592,-0.3559,-0.351,-0.3501,-0.3493,-0.3461,-0.345,-0.3584,-0.3584,-0.3584,0,-0.4291,-0.421,-0.4186,-0.4128,-0.4092,-0.4081,-0.4021,-0.3985,-0.3912,-0.3887,-0.3899,-0.3774,-0.3735,-0.3642,-0.3622,-0.3596,-0.3576,-0.3599,-0.3505,-0.3497,-0.3489,-0.3457,-0.3446,-0.3583,-0.3583,-0.3583,-0.3583,0,-0.4191,-0.4135,-0.4095,-0.4026,-0.3986,-0.3927,-0.3891,-0.3853,-0.384,-0.3811,-0.3732,-0.3684,-0.3617,-0.3594,-0.3581,-0.3498,-0.3505,-0.3512,-0.3534,-0.3477,-0.3447,-0.3435,-0.3581,-0.3582,-0.3582,-0.3582,0,0,-0.4128,-0.4045,-0.403,-0.3997,-0.3932,-0.3887,-0.3825,-0.3761,-0.3727,-0.3676,-0.3622,-0.3538,-0.3543,-0.3504,-0.3486,-0.3443,-0.3377,-0.3454,-0.3452,-0.3439,-0.3278,-0.3272,-0.3259,-0.3373,-0.3371,-0.3369,-0.3282,0,-0.4057,-0.395,-0.3925,-0.3832,-0.3777,-0.3764,-0.3709,-0.3662,-0.3632,-0.358,-0.3546,-0.3486,-0.3499,-0.3474,-0.3432,-0.3394,-0.3344,-0.34,-0.3319,-0.3316,-0.3332,-0.3244,-0.3239,-0.3159,-0.3271,-0.3269,-0.3267,0,-0.3961,-0.3908,-0.381,-0.3748,-0.3724,-0.3677,-0.3613,-0.3564,-0.3508,-0.3489,-0.3444,-0.343,-0.3361,-0.3388,-0.3291,-0.333,-0.3295,-0.3271,-0.3267,-0.3257,-0.3288,-0.3229,-0.3133,-0.3121,-0.3249,-0.325,-0.3252,0,-0.3921,-0.3825,-0.3753,-0.3725,-0.3653,-0.3619,-0.3587,-0.3533,-0.3494,-0.3438,-0.3412,-0.3348,-0.3313,-0.3262,-0.3229,-0.3252,-0.3134,-0.3158,-0.3113,-0.3114,-0.3089,-0.309,-0.2983,-0.3069,-0.307,-0.307,-0.307,0,-0.3843,-0.3783,-0.3734,-0.3689,-0.3619,-0.3589,-0.352,-0.3488,-0.3439,-0.3385,-0.337,-0.3319,-0.3279,-0.3222,-0.3196,-0.3118,-0.3102,-0.3083,-0.3076,-0.3083,-0.3085,-0.3059,-0.3062,-0.3067,-0.3067,-0.3068,-0.3068,0,-0.3787,-0.3753,-0.3672,-0.361,-0.3592,-0.3543,-0.3488,-0.3442,-0.3412,-0.3344,-0.3326,-0.3277,-0.3208,-0.317,-0.3085,-0.3066,-0.2978,-0.2976,-0.2998,-0.2994,-0.2951,-0.2954,-0.2821,-0.2801,-0.2903,-0.2902,-0.2901,0,-0.374,-0.3693,-0.3624,-0.3588,-0.3555,-0.3497,-0.3457,-0.3424,-0.3382,-0.3313,-0.3275,-0.3206,-0.3149,-0.3039,-0.2994,-0.2927,-0.2921,-0.2879,-0.2911,-0.2918,-0.2917,-0.292,-0.2913,-0.2873,-0.2872,-0.2871,-0.2871,0,-0.3657,-0.3641,-0.3586,-0.3522,-0.3475,-0.3424,-0.3373,-0.3343,-0.3301,-0.3254,-0.3185,-0.314,-0.3052,-0.2982,-0.2911,-0.2874,-0.2864,-0.2861,-0.2847,-0.2853,-0.2866,-0.2855,-0.298,-0.2864,-0.2865,-0.2865,-0.2866,-0.2866,-0.3602,-0.3558,-0.3502,-0.3439,-0.3397,-0.3348,-0.3301,-0.3264,-0.3206,-0.3132,-0.3116,-0.3041,-0.2982,-0.2886,-0.2847,-0.2786,-0.2794,-0.2774,-0.2768,-0.2763,-0.276,-0.2877,-0.2773,-0.2774,-0.2774,-0.2774,-0.2774,0,-0.3516,-0.3479,-0.3421,-0.335,-0.3299,-0.3295,-0.3237,-0.3194,-0.3129,-0.3076,-0.302,-0.2937,-0.2868,-0.2817,-0.2746,-0.2707,-0.27,-0.2689,-0.2691,-0.2682,-0.2759,-0.2777,-0.2696,-0.2696,-0.2696,-0.2696,-0.2696,-0.2696,-0.3466,-0.339,-0.3367,-0.3268,-0.3231,-0.3159,-0.3125,-0.3079,-0.3036,-0.2945,-0.2888,-0.2856,-0.2802,-0.2726,-0.2661,-0.2648,-0.2621,-0.261,-0.2596,-0.2668,-0.2677,-0.2685,-0.2702,-0.2605,-0.2605,-0.2523,-0.2522,-0.2522]}]]